Flag for Syria Weather past 2 weeks in Damascus, Syria

Now
102 °F

Sunny.


Feels Like: 98 °F
Forecast: 61 / 102 °F
Wind: No wind

Location: Damascus Int. Airport

Current Time: Aug 23, 2014 at 4:36:59 PM

Latest Report: Aug 23, 2014 at 4:00 PM


Visibility: 10 mi

Pressure: 29.77 "Hg

Humidity: 13%

Dew point: 43 °F

Location of DamascusLocation

Historic Weather in Damascus — Graph

°F

Damascus temperature yesterday

Maximum temperature yesterday: 100 °F (at 4:00 PM)
Minimum temperature yesterday: 57 °F (at 6:00 AM)
Average temperature yesterday: 80 °F

Past Weeks' High & Low Weather Summary

 TemperatureHumidityPressure
High106 °F (Aug 14, 5:00 PM)100% (Aug 19, 7:00 PM)30.01 "Hg (Aug 19, 7:00 PM)
Low36 °F (Aug 19, 7:00 PM)5% (Aug 21, 4:00 PM)29.65 "Hg (Aug 18, 5:00 PM)
Average82 °F46%29.83 "Hg
* Reported Aug 8 3:00 PM — Aug 23 3:00 PM, Damascus, Weather by CustomWeather, © 2014

Note: Actual official high and low records may vary slightly from our data, if they occured in-between our weather recording intervals... More about our weather records

Advertising

Damascus weather history for previous 24 hours

 ConditionsComfort  
Time TempWeatherWind HumidityBarometerVisibility
3:00 PM
Aug 23
100 °FSunny.No wind14%29.77 "Hg10 mi
2:00 PM100 °FSunny.No wind14%29.80 "Hg10 mi
1:00 PM97 °FSunny.No wind17%29.80 "Hg10 mi
12:00 PM95 °FSunny.No wind25%29.83 "Hg10 mi
11:00 AM88 °FSunny.No wind35%29.86 "Hg10 mi
10:00 AM86 °FSunny.No wind46%29.86 "Hg10 mi
9:00 AM79 °FSunny.No wind70%29.86 "Hg10 mi
8:00 AM73 °FSunny.7 mph78%29.86 "Hg10 mi
7:00 AM70 °FClear.8 mph88%29.83 "Hg10 mi
6:00 AM70 °FClear.12 mph83%29.83 "Hg10 mi
5:00 AM70 °FClear.7 mph83%29.83 "Hg10 mi
4:00 AM72 °FClear.12 mph78%29.83 "Hg10 mi
3:00 AM72 °FClear.12 mph78%29.83 "Hg10 mi
2:00 AM73 °FClear.8 mph74%29.83 "Hg10 mi
1:00 AM75 °FClear.9 mph69%29.86 "Hg10 mi
12:00 AM77 °FClear.16 mph65%29.86 "Hg10 mi
11:00 PM
Aug 22
79 °FClear.16 mph61%29.86 "Hg10 mi
10:00 PM81 °FClear.14 mph51%29.86 "Hg10 mi
9:00 PM84 °FClear.16 mph45%29.83 "Hg10 mi
8:00 PM90 °FSunny.12 mph31%29.80 "Hg10 mi
7:00 PM95 °FSunny.7 mph9%29.80 "Hg10 mi
6:00 PM99 °FSunny.6 mph9%29.77 "Hg10 mi
5:00 PM99 °FSunny.6 mph8%29.80 "Hg10 mi
4:00 PM100 °FSunny.3 mph8%29.80 "Hg10 mi
Weather by CustomWeather, © 2014

See weather overviewHow to use our weather pages